Weather History for EVLA - March, 2013

Change the Weather History Date:

Thursday, March 14, 2013

  Actual Average Record
Temperature  
Mean Temperature 22 °F -  
Max Temperature 33 °F - - ()
Min Temperature 11 °F - - ()
Degree Days  
Heating Degree Days 43    
Moisture  
Dew Point 14 °F    
Average Humidity 72    
Maximum Humidity 100    
Minimum Humidity 40    
Precipitation  
Precipitation 0.00 in - - ()
Sea Level Pressure  
Sea Level Pressure 29.80 in    
Wind  
Wind Speed 4 mph ()    
Max Wind Speed 9 mph    
Max Gust Speed -    
Visibility 6.5 miles    
Events      
T = Trace of Precipitation, MM = Missing Value Source: Averaged Metar Reports

Daily Weather History Graph

Daily Weather History Graph

Search for Another Location

Airport or City:

Trip Planner

Search our weather history database for the weather conditions in past years. The results will help you decide how hot, cold, wet, or windy it might be!

Date:

Astronomy

Mar. 14, 2013 Rise Set
Actual Time 6:53 AM EET 6:36 PM EET
Civil Twilight 6:16 AM EET 7:14 PM EET
Nautical Twilight 5:32 AM EET 7:58 PM EET
Astronomical Twilight 4:46 AM EET 8:45 PM EET
Moon 7:20 AM EET (3/14) 10:18 PM EET (3/14)
Length of Visible Light 12h 58m
Length of Day
11h 43m
Waxing Crescent, 7% of the Moon is Illuminated
Mar 14
Waxing Crescent
Mar 19
First Quarter
Mar 27
Full
Apr 3
Last Quarter
Apr 10
New

Hourly Weather History & Observations

Time (EET) Temp. Windchill Dew Point Humidity Pressure Visibility Wind Dir Wind Speed Gust Speed Precip Events Conditions
12:20 AM 14.0 °F 8.2 °F 12.2 °F 93% 29.71 in - East 3.5 mph - N/A   Clear
12:50 AM 14.0 °F - 14.0 °F 100% 29.71 in - Calm Calm - N/A   Clear
1:20 AM 14.0 °F 8.2 °F 12.2 °F 93% 29.71 in - ENE 3.5 mph - N/A   Clear
1:50 AM 12.2 °F - 12.2 °F 100% 29.71 in - ENE 2.3 mph - N/A   Clear
2:00 AM 15 °F - 13 °F 91% 29.75 in 6 mi ESE 2.2 mph - -  
2:20 AM 14.0 °F 8.2 °F 12.2 °F 93% 29.74 in - ENE 3.5 mph - N/A   Clear
2:50 AM 12.2 °F - 10.4 °F 92% 29.74 in - East 1.2 mph - N/A   Clear
3:20 AM 12.2 °F 6.1 °F 10.4 °F 92% 29.74 in - ENE 3.5 mph - N/A   Clear
3:50 AM 12.2 °F - 10.4 °F 92% 29.74 in - ENE 2.3 mph - N/A   Clear
4:20 AM 12.2 °F - 10.4 °F 92% 29.74 in - ENE 2.3 mph - N/A   Clear
4:50 AM 12.2 °F 6.1 °F 10.4 °F 92% 29.74 in - ENE 3.5 mph - N/A   Clear
5:20 AM 10.4 °F 4.0 °F 8.6 °F 92% 29.74 in - ENE 3.5 mph - N/A   Clear
5:50 AM 12.2 °F 4.3 °F 10.4 °F 92% 29.74 in - ENE 4.6 mph - N/A   Clear
6:20 AM 10.4 °F - 10.4 °F 100% 29.74 in - East 2.3 mph - N/A   Clear
6:50 AM 12.2 °F 6.1 °F 10.4 °F 92% 29.74 in - ENE 3.5 mph - N/A   Clear
7:20 AM 12.2 °F 6.1 °F 10.4 °F 92% 29.74 in - ENE 3.5 mph - N/A   Clear
7:50 AM 12.2 °F 6.1 °F 10.4 °F 92% 29.74 in - ENE 3.5 mph - N/A   Clear
8:00 AM 16 °F - 13 °F 83% 29.78 in 9 mi East 2.2 mph - -  
8:20 AM 15.8 °F 10.2 °F 14.0 °F 93% 29.77 in - East 3.5 mph - N/A   Clear
8:50 AM 19.4 °F 14.3 °F 15.8 °F 86% 29.77 in - East 3.5 mph - N/A   Clear
9:20 AM 23.0 °F 18.4 °F 17.6 °F 80% 29.77 in - East 3.5 mph - N/A   Clear
9:50 AM 24.8 °F 19.1 °F 19.4 °F 80% 29.77 in - ENE 4.6 mph - N/A   Clear
10:20 AM 28.4 °F 23.3 °F 21.2 °F 74% 29.77 in - East 4.6 mph - N/A   Clear
10:50 AM 30.2 °F 25.4 °F 21.2 °F 69% 29.80 in - ESE 4.6 mph - N/A   Clear
11:20 AM 32.0 °F 28.7 °F 19.4 °F 60% 29.80 in 6.2 mi SE 3.5 mph - N/A   Partly Cloudy
11:50 AM 32.0 °F 26.4 °F 17.6 °F 55% 29.80 in 6.2 mi SSW 5.8 mph - N/A   Mostly Cloudy
12:20 PM 32.0 °F 26.4 °F 17.6 °F 55% 29.80 in 6.2 mi WSW 5.8 mph - N/A   Scattered Clouds
12:50 PM 32.0 °F 26.4 °F 17.6 °F 55% 29.80 in 6.2 mi SW 5.8 mph - N/A   Scattered Clouds
1:20 PM 32.0 °F 24.2 °F 19.4 °F 60% 29.80 in 6.2 mi WSW 9.2 mph - N/A   Partly Cloudy
1:50 PM 32.0 °F 24.2 °F 19.4 °F 60% 29.80 in 6.2 mi WSW 9.2 mph - N/A   Partly Cloudy
2:00 PM 32 °F - 18 °F 43% 29.83 in 12 mi SW 8.9 mph - -   Scattered Clouds
2:20 PM 32.0 °F 24.8 °F 19.4 °F 60% 29.80 in 6.2 mi WSW 8.1 mph - N/A   Partly Cloudy
2:50 PM 32.0 °F 24.8 °F 21.2 °F 64% 29.80 in 6.2 mi West 8.1 mph - N/A   Scattered Clouds
3:20 PM 32.0 °F 24.8 °F 21.2 °F 64% 29.80 in 6.2 mi West 8.1 mph - N/A   Partly Cloudy
3:50 PM 32.0 °F 26.4 °F 23.0 °F 69% 29.80 in 6.2 mi WNW 5.8 mph - N/A   Scattered Clouds
4:20 PM 32.0 °F 28.7 °F 23.0 °F 69% 29.80 in 6.2 mi Variable 3.5 mph - N/A   Mostly Cloudy
4:50 PM 32.0 °F 28.7 °F 21.2 °F 64% 29.80 in 6.2 mi North 3.5 mph - N/A   Mostly Cloudy
5:20 PM 32.0 °F 28.7 °F 21.2 °F 64% 29.80 in 6.2 mi North 3.5 mph - N/A   Mostly Cloudy
5:50 PM 30.2 °F 25.4 °F 19.4 °F 64% 29.83 in 6.2 mi NNE 4.6 mph - N/A   Overcast
6:20 PM 28.4 °F 23.3 °F 15.8 °F 59% 29.83 in 6.2 mi NNE 4.6 mph - N/A   Scattered Clouds
6:50 PM 26.6 °F - 14.0 °F 59% 29.83 in - Variable 2.3 mph - N/A   Clear
7:20 PM 26.6 °F - 12.2 °F 55% 29.86 in - Variable 2.3 mph - N/A   Clear
7:50 PM 24.8 °F - 12.2 °F 59% 29.86 in - NNE 2.3 mph - N/A   Clear
8:00 PM 25 °F - 10 °F 40% 29.88 in 6 mi North 4.5 mph - -   Clear
8:20 PM 24.8 °F - 12.2 °F 59% 29.86 in - Variable 1.2 mph - N/A   Clear
8:50 PM 24.8 °F - 12.2 °F 59% 29.86 in 6.2 mi Variable 2.3 mph - N/A   Mostly Cloudy
9:20 PM 26.6 °F 18.2 °F 8.6 °F 47% 29.89 in 6.2 mi NE 8.1 mph - N/A   Mostly Cloudy
9:50 PM 24.8 °F 17.9 °F 6.8 °F 46% 29.89 in 6.2 mi NNE 5.8 mph - N/A   Overcast
10:20 PM 24.8 °F 16.9 °F 6.8 °F 46% 29.89 in 6.2 mi NE 6.9 mph - N/A   Overcast
10:50 PM 24.8 °F 17.9 °F 10.4 °F 54% 29.92 in 6.2 mi NE 5.8 mph - N/A   Overcast
11:20 PM 24.8 °F 15.3 °F 12.2 °F 59% 29.92 in 6.2 mi ENE 9.2 mph - N/A   Overcast
11:50 PM 23.0 °F 14.7 °F 10.4 °F 59% 29.92 in 6.2 mi ENE 6.9 mph - N/A   Overcast